Volver al catálogo

COSMOS 2251 DEB

ActivoLEO
NORAD 38056·DEBRIS·🇷🇺 Russia

Lanzado Jun 16, 1993 desde Plesetsk Cosmodrome

Loading…

Próximos Pases (próximas 24 horas)

TLE

EnvejeciendoSource: Space-Track

Época: Sep 12, 2026, 04:28 UTC

1 38056U 93036BRN 26255.18621629  .00002367  00000-0  13978-2 0  9996
2 38056  73.9168 166.9802 0277516 100.9230 262.3253 13.90807479680738

Sigue COSMOS 2251 DEB en tiempo real con AllMySat

Download on the App Store